QPF
0.00 0.00 0.00 0.00 0.00 0.00 0.00 0.00 0.00 0.00 0.00 0.00 0.00 0.00 0.00 0.00 0.00 0.00 0.00 0.00 0.00 0.00 0.00 0.00 0.00 0.00 0.00 0.00 0.00 0.00 0.01 0.00 0.00 0.00 0.00 0.00 0.00 0.00 0.00 0.01 0.02 0.01 0.00 0.00
0.00 0.00 0.00 0.00 0.00 0.00 0.00 0.00 0.00 0.00 0.00 0.00 0.00 0.00 0.00 0.00 0.00 0.00 0.00 0.00 0.00 0.00 0.00 0.00 0.00 0.00 0.00 0.00 0.00 0.00 0.00 0.00 0.00 0.00 0.00 0.00 0.00 0.01 0.03 0.08 0.03 0.00 0.00 0.01
0.00 0.00 0.00 0.00 0.00 0.00 0.00 0.00 0.00 0.00 0.00 0.00 0.00 0.00 0.00 0.00 0.00 0.00 0.00 0.00 0.00 0.00 0.00 0.00 0.00 0.00 0.00 0.00 0.00 0.00 0.00 0.00 0.00 0.00 0.00 0.01 0.06 0.08 0.03 0.01 0.00 0.01 0.00 0.01
0.00 0.00 0.00 0.00 0.00 0.00 0.00 0.00 0.00 0.00 0.00 0.00 0.00 0.00 0.00 0.00 0.00 0.00 0.00 0.00 0.00 0.00 0.00 0.00 0.00 0.00 0.00 0.00 0.00 0.00 0.00 0.00 0.00 0.00 0.00 0.01 0.06 0.07 0.07 0.01 0.00 0.00 0.00 0.00
0.00 0.00 0.00 0.00 0.00 0.00 0.00 0.00 0.00 0.00 0.00 0.00 0.00 0.00 0.00 0.00 0.00 0.00 0.00 0.00 0.00 0.00 0.00 0.00 0.00 0.00 0.00 0.00 0.00 0.00 0.00 0.00 0.00 0.00 0.00 0.00 0.01 0.05 0.02 0.00 0.00 0.00 0.00 0.00
0.00 0.00 0.00 0.00 0.00 0.00 0.00 0.00 0.00 0.00 0.00 0.00 0.00 0.00 0.00 0.00 0.00 0.00 0.00 0.00 0.00 0.00 0.00 0.00 0.00 0.00 0.00 0.00 0.00 0.00 0.00 0.00 0.00 0.00 0.00 0.00 0.03 0.06 0.05 0.01 0.01 0.00 0.00 0.00
0.00 0.00 0.00 0.00 0.00 0.00 0.00 0.00 0.00 0.00 0.00 0.00 0.00 0.00 0.00 0.00 0.00 0.00 0.00 0.00 0.00 0.00 0.00 0.00 0.00 0.00 0.00 0.00 0.00 0.00 0.00 0.00 0.00 0.00 0.00 0.00 0.00 0.03 0.02 0.00 0.01 0.00 0.00 0.00
0.00 0.00 0.00 0.00 0.00 0.00 0.00 0.00 0.00 0.00 0.00 0.00 0.00 0.00 0.00 0.00 0.00 0.00 0.00 0.00 0.00 0.00 0.00 0.00 0.00 0.00 0.00 0.00 0.00 0.00 0.00 0.00 0.01 0.00 0.00 0.00 0.00 0.02 0.02 0.02 0.00 0.00 0.00 0.00
0.00 0.00 0.00 0.00 0.00 0.00 0.00 0.00 0.00 0.00 0.00 0.00 0.00 0.00 0.00 0.00 0.00 0.00 0.00 0.00 0.00 0.00 0.00 0.00 0.00 0.00 0.00 0.00 0.00 0.00 0.00 0.00 0.00 0.01 0.00 0.00 0.01 0.01 0.03 0.01 0.00 0.00 0.00 0.00
0.00 0.00 0.00 0.00 0.00 0.00 0.00 0.00 0.00 0.00 0.00 0.00 0.00 0.00 0.00 0.00 0.00 0.00 0.00 0.00 0.00 0.00 0.00 0.00 0.00 0.00 0.00 0.00 0.00 0.00 0.00 0.00 0.00 0.01 0.01 0.03 0.00 0.00 0.00 0.00 0.00 0.00 0.00 0.00
0.00 0.00 0.00 0.00 0.00 0.00 0.00 0.00 0.00 0.00 0.00 0.00 0.00 0.00 0.00 0.00 0.00 0.00 0.00 0.00 0.00 0.00 0.00 0.00 0.00 0.00 0.00 0.00 0.00 0.00 0.00 0.00 0.00 0.02 0.01 0.02 0.05 0.02 0.02 0.00 0.00 0.00 0.00 0.00
0.00 0.00 0.00 0.00 0.00 0.00 0.00 0.00 0.00 0.00 0.00 0.00 0.00 0.00 0.00 0.00 0.00 0.00 0.00 0.00 0.00 0.00 0.00 0.00 0.00 0.00 0.00 0.00 0.00 0.00 0.00 0.00 0.00 0.02 0.10 0.12 0.09 0.02 0.02 0.00 0.00 0.00 0.01 0.01
0.00 0.00 0.00 0.00 0.00 0.00 0.00 0.00 0.00 0.00 0.00 0.00 0.00 0.00 0.00 0.00 0.00 0.00 0.00 0.00 0.00 0.00 0.00 0.00 0.00 0.00 0.00 0.00 0.00 0.01 0.12 0.31 0.38 0.37 0.28 0.20 0.10 0.02 0.00 0.00 0.00 0.02 0.04 0.01
0.00 0.00 0.00 0.00 0.00 0.00 0.00 0.00 0.00 0.00 0.00 0.00 0.00 0.00 0.00 0.00 0.00 0.00 0.00 0.00 0.00 0.00 0.00 0.00 0.00 0.00 0.00 0.00 0.00 0.02 0.27 0.40 0.41 0.43 0.53 0.50 0.22 0.02 0.00 0.00 0.00 0.01 0.05 0.07
0.00 0.00 0.00 0.00 0.00 0.00 0.00 0.00 0.00 0.00 0.00 0.00 0.00 0.00 0.00 0.00 0.00 0.00 0.00 0.00 0.00 0.00 0.00 0.00 0.00 0.00 0.00 0.00 0.00 0.05 0.22 0.24 0.19 0.31 0.38 0.34 0.11 0.01 0.00 0.00 0.02 0.04 0.07 0.03
0.00 0.00 0.00 0.00 0.00 0.00 0.00 0.00 0.00 0.00 0.00 0.00 0.00 0.00 0.00 0.00 0.00 0.00 0.00 0.00 0.00 0.00 0.00 0.00 0.00 0.00 0.00 0.00 0.05 0.15 0.25 0.12 0.01 0.03 0.02 0.04 0.00 0.00 0.02 0.08 0.05 0.01 0.00 0.00
0.00 0.00 0.00 0.00 0.00 0.00 0.00 0.00 0.00 0.00 0.00 0.00 0.00 0.00 0.00 0.00 0.00 0.00 0.00 0.00 0.00 0.00 0.00 0.00 0.00 0.00 0.00 0.00 0.03 0.19 0.23 0.04 0.03 0.01 0.00 0.00 0.00 0.02 0.02 0.05 0.03 0.01 0.00 0.00
0.00 0.00 0.00 0.00 0.00 0.00 0.00 0.00 0.00 0.00 0.00 0.00 0.00 0.00 0.00 0.00 0.00 0.00 0.00 0.00 0.00 0.00 0.00 0.00 0.00 0.00 0.00 0.00 0.09 0.20 0.13 0.03 0.03 0.03 0.00 0.01 0.06 0.06 0.08 0.09 0.06 0.00 0.00 0.00
0.00 0.00 0.00 0.00 0.00 0.00 0.00 0.00 0.00 0.00 0.00 0.00 0.00 0.00 0.00 0.00 0.00 0.00 0.00 0.00 0.00 0.00 0.00 0.00 0.00 0.00 0.00 0.03 0.20 0.29 0.19 0.10 0.03 0.01 0.00 0.02 0.01 0.03 0.06 0.04 0.01 0.00 0.00 0.00
0.00 0.00 0.00 0.00 0.00 0.00 0.00 0.00 0.00 0.00 0.00 0.00 0.00 0.00 0.00 0.00 0.00 0.00 0.00 0.00 0.00 0.00 0.00 0.00 0.00 0.00 0.00 0.07 0.15 0.20 0.10 0.02 0.00 0.00 0.02 0.03 0.01 0.05 0.04 0.02 0.00 0.00 0.00 0.00
0.00 0.00 0.00 0.00 0.00 0.00 0.00 0.00 0.00 0.00 0.00 0.00 0.00 0.00 0.00 0.00 0.00 0.00 0.00 0.00 0.00 0.00 0.00 0.00 0.00 0.00 0.00 0.03 0.01 0.01 0.03 0.00 0.00 0.00 0.01 0.02 0.06 0.08 0.04 0.00 0.00 0.00 0.00 0.00
0.00 0.00 0.00 0.00 0.00 0.00 0.00 0.00 0.00 0.00 0.00 0.00 0.00 0.00 0.00 0.00 0.00 0.00 0.00 0.00 0.00 0.00 0.00 0.00 0.00 0.00 0.05 0.04 0.01 0.00 0.01 0.00 0.00 0.01 0.03 0.02 0.05 0.03 0.00 0.00 0.00 0.00 0.00 0.00
0.00 0.00 0.00 0.00 0.00 0.00 0.00 0.00 0.00 0.00 0.00 0.00 0.00 0.00 0.00 0.00 0.00 0.00 0.00 0.00 0.00 0.00 0.00 0.00 0.00 0.00 0.02 0.00 0.01 0.00 0.00 0.00 0.01 0.05 0.06 0.02 0.03 0.00 0.00 0.00 0.00 0.00 0.00 0.00
0.00 0.00 0.00 0.00 0.00 0.00 0.00 0.00 0.00 0.00 0.00 0.00 0.00 0.00 0.00 0.00 0.00 0.00 0.00 0.00 0.00 0.00 0.00 0.00 0.00 0.00 0.00 0.00 0.00 0.00 0.00 0.00 0.02 0.03 0.01 0.00 0.00 0.00 0.00 0.00 0.00 0.00 0.00 0.00
0.00 0.00 0.00 0.00 0.00 0.00 0.00 0.00 0.00 0.01 0.00 0.00 0.00 0.00 0.00 0.00 0.00 0.00 0.00 0.00 0.00 0.01 0.05 0.04 0.02 0.00 0.00 0.00 0.00 0.00 0.00 0.00 0.01 0.00 0.00 0.00 0.00 0.00 0.00 0.00 0.00 0.00 0.00 0.00
0.00 0.00 0.00 0.00 0.00 0.00 0.00 0.00 0.01 0.02 0.01 0.01 0.01 0.00 0.00 0.00 0.00 0.00 0.00 0.02 0.05 0.06 0.06 0.04 0.02 0.01 0.00 0.00 0.00 0.00 0.00 0.00 0.00 0.00 0.00 0.00 0.00 0.00 0.00 0.00 0.00 0.00 0.00 0.00
MSLP
1006.07 1005.53 1005.04 1005.01 1005.30 1005.54 1005.82 1005.79 1005.70 1005.32 1005.26 1005.34 1004.90 1004.67 1005.37 1006.32 1006.90 1007.21 1007.66 1008.39 1008.58 1008.63 1009.01 1009.52 1010.07 1010.58 1011.15 1011.55 1012.08 1012.61 1013.11 1013.37 1013.87 1014.23 1014.41 1014.73 1014.76 1014.96 1015.02 1014.93 1014.97 1015.17 1015.36 1015.56
1006.31 1005.58 1005.64 1005.62 1005.63 1005.55 1005.64 1005.53 1005.36 1005.40 1005.10 1005.16 1004.84 1004.27 1004.64 1005.41 1005.93 1006.49 1006.90 1007.31 1007.73 1008.01 1008.47 1008.85 1009.28 1009.78 1010.31 1010.68 1011.30 1012.09 1012.58 1013.12 1013.53 1013.75 1014.18 1014.44 1014.52 1014.68 1014.72 1014.71 1014.91 1014.89 1015.08 1015.23
1006.17 1006.07 1006.07 1005.77 1005.68 1005.46 1005.39 1005.20 1005.24 1005.51 1005.22 1004.57 1004.68 1003.99 1004.31 1005.03 1005.64 1006.05 1006.45 1006.53 1006.90 1007.11 1007.44 1007.96 1008.49 1008.88 1009.47 1010.15 1010.72 1011.32 1011.92 1012.55 1013.12 1013.54 1014.01 1014.36 1014.55 1014.71 1014.75 1014.83 1014.95 1014.90 1014.96 1015.14
1006.46 1006.26 1005.98 1005.75 1005.41 1005.30 1004.86 1005.24 1005.29 1005.23 1005.12 1004.74 1004.73 1003.89 1003.78 1004.30 1004.59 1005.12 1005.29 1005.51 1005.79 1006.28 1006.74 1007.12 1007.54 1008.20 1008.73 1009.30 1010.35 1010.89 1011.56 1012.28 1012.87 1013.31 1013.43 1013.66 1013.88 1014.20 1014.27 1014.43 1014.59 1014.85 1014.93 1015.08
1006.09 1005.99 1005.73 1005.37 1005.12 1005.19 1004.83 1005.12 1005.20 1005.14 1004.96 1004.96 1004.69 1004.33 1003.23 1003.48 1002.94 1003.09 1004.00 1004.21 1004.78 1005.36 1005.83 1006.41 1006.76 1007.48 1008.19 1009.14 1009.85 1010.66 1011.26 1012.05 1012.51 1012.79 1013.14 1013.52 1013.91 1014.02 1014.08 1014.32 1014.57 1014.98 1015.22 1015.11
1006.09 1006.05 1005.64 1005.00 1005.02 1004.96 1004.98 1005.15 1005.29 1005.36 1005.02 1004.49 1004.46 1004.16 1002.43 1002.38 1002.22 1001.98 1002.63 1003.26 1003.80 1004.62 1005.21 1005.67 1006.34 1007.25 1008.04 1008.91 1009.65 1010.34 1011.02 1011.62 1012.29 1012.56 1013.02 1013.43 1013.68 1013.95 1014.04 1014.21 1014.42 1014.80 1015.22 1015.47
1005.95 1005.53 1005.22 1005.08 1004.82 1005.10 1004.92 1004.63 1004.49 1004.58 1004.46 1004.08 1004.60 1003.94 1002.01 1001.62 1001.49 1001.75 1001.72 1002.40 1003.13 1003.69 1004.41 1005.15 1005.98 1006.81 1007.62 1008.30 1009.04 1009.84 1010.74 1011.28 1012.05 1012.49 1012.86 1013.12 1013.47 1013.85 1013.91 1014.26 1014.50 1014.70 1015.05 1015.27
1005.30 1005.09 1004.85 1004.70 1004.48 1004.26 1004.52 1004.33 1003.99 1003.84 1004.06 1003.97 1004.51 1003.14 1001.55 1001.16 1001.19 1001.31 1001.53 1001.85 1002.47 1003.19 1003.74 1004.45 1005.34 1006.14 1006.98 1007.74 1008.54 1009.36 1010.25 1010.99 1011.61 1012.01 1012.49 1013.18 1013.49 1013.84 1014.11 1014.43 1014.56 1014.72 1014.94 1015.21
1005.08 1004.71 1004.49 1004.33 1003.98 1004.05 1004.58 1004.56 1004.44 1004.05 1004.90 1004.32 1003.44 1002.74 1001.58 1000.83 1000.50 1000.74 1000.80 1001.30 1001.76 1002.31 1003.12 1004.03 1004.75 1005.70 1006.36 1007.09 1008.09 1008.89 1009.67 1010.56 1011.35 1011.82 1012.33 1013.00 1013.47 1013.81 1014.29 1014.58 1014.98 1014.97 1015.30 1015.38
1004.78 1004.56 1004.30 1003.99 1004.10 1004.27 1003.92 1004.01 1004.29 1004.07 1003.73 1003.54 1003.07 1002.25 1000.93 1000.50 999.97 1000.04 1000.19 1000.64 1001.14 1001.93 1003.02 1003.77 1004.51 1005.42 1006.20 1006.96 1007.69 1008.57 1009.44 1010.07 1010.76 1011.59 1012.22 1012.73 1013.11 1013.73 1014.15 1014.49 1014.78 1014.97 1015.14 1015.43
1004.81 1004.57 1004.28 1004.09 1003.58 1003.25 1003.96 1003.64 1003.95 1003.71 1003.50 1002.68 1002.22 1001.23 1000.70 1000.20 999.66 1000.01 1000.01 1000.50 1001.15 1001.95 1002.88 1003.87 1004.54 1005.39 1006.04 1006.74 1007.29 1008.15 1009.06 1009.91 1010.53 1011.51 1012.24 1012.84 1013.17 1013.57 1014.03 1014.52 1014.90 1015.18 1015.33 1015.48
1004.76 1004.37 1003.84 1003.53 1003.59 1003.73 1003.32 1002.80 1002.90 1002.61 1003.07 1003.08 1002.24 1000.84 1000.41 1000.22 999.80 1000.35 1000.32 1000.60 1001.12 1001.86 1002.55 1003.45 1004.19 1005.13 1006.00 1006.62 1007.39 1008.41 1009.42 1010.28 1010.78 1011.34 1012.02 1012.64 1013.01 1013.60 1014.19 1014.43 1014.84 1015.17 1015.39 1015.67
1004.47 1004.25 1003.73 1003.25 1003.61 1003.71 1003.10 1002.73 1002.59 1002.66 1002.57 1002.20 1001.50 1000.34 1000.17 1000.09 999.61 1000.32 1000.60 1000.78 1001.46 1001.89 1002.57 1003.24 1003.85 1004.75 1006.11 1007.30 1008.12 1008.76 1009.66 1010.94 1011.73 1012.69 1013.11 1013.25 1013.13 1013.52 1014.04 1014.53 1014.91 1015.10 1015.60 1016.01
1004.28 1004.00 1003.44 1002.96 1002.63 1002.59 1002.49 1002.34 1002.45 1002.12 1001.67 1001.40 1000.95 1000.04 999.79 999.63 999.50 999.56 1000.25 1000.89 1001.49 1001.77 1002.33 1003.08 1004.29 1005.42 1006.34 1007.43 1008.66 1009.52 1010.43 1011.18 1011.71 1012.43 1013.24 1014.05 1013.89 1013.73 1014.16 1014.72 1015.03 1015.35 1015.92 1016.49
1004.25 1003.78 1003.91 1003.31 1003.07 1002.77 1002.17 1001.93 1002.17 1001.88 1001.21 1000.87 1000.17 1000.23 999.50 999.41 999.61 999.45 999.81 1000.67 1001.32 1001.86 1002.49 1003.48 1004.63 1005.76 1006.78 1008.17 1009.35 1010.60 1011.17 1011.23 1011.78 1012.00 1012.99 1014.10 1014.53 1014.64 1014.72 1015.26 1015.45 1015.74 1016.42 1016.78
1004.72 1004.13 1004.07 1003.32 1003.03 1002.59 1001.91 1001.61 1001.49 1001.52 1001.25 1000.86 1000.43 999.84 999.29 999.47 999.68 999.80 1000.11 1000.54 1000.94 1001.82 1002.87 1003.93 1004.98 1006.00 1007.24 1008.58 1010.03 1010.83 1010.89 1010.79 1011.22 1012.30 1012.53 1013.41 1014.10 1014.66 1014.66 1015.56 1015.85 1016.23 1016.56 1017.14
1004.95 1004.34 1004.10 1003.32 1003.22 1002.54 1001.64 1000.70 1000.72 1000.78 1000.66 1000.06 999.80 999.27 999.45 999.36 999.50 999.89 1000.52 1000.87 1001.24 1002.17 1003.01 1004.04 1005.08 1006.13 1007.43 1008.70 1009.34 1009.15 1009.21 1007.79 1009.79 1012.48 1013.33 1014.08 1013.75 1014.85 1015.21 1015.61 1016.16 1016.44 1017.08 1017.65
1005.31 1005.07 1004.66 1003.54 1003.40 1002.29 1000.73 1000.97 1000.78 1000.69 1000.38 1000.02 999.72 999.58 999.59 999.64 999.85 1000.01 1000.65 1000.88 1001.31 1001.99 1002.91 1003.78 1004.71 1006.02 1007.71 1008.49 1008.95 1010.24 1010.63 1009.19 1010.28 1011.57 1012.91 1013.12 1013.80 1014.80 1015.33 1015.98 1016.37 1017.06 1017.49 1017.84
1006.10 1005.67 1004.97 1004.28 1003.16 1002.21 1001.13 1000.99 1000.88 1000.86 1000.22 999.89 999.74 999.45 999.66 1000.13 1000.40 999.85 1000.53 1001.11 1001.32 1002.06 1002.93 1003.76 1004.68 1006.15 1007.44 1008.64 1009.50 1010.11 1009.85 1011.85 1012.60 1012.28 1012.53 1012.56 1013.39 1014.56 1015.13 1015.80 1016.80 1017.32 1017.64 1017.88
1006.54 1006.30 1005.51 1005.04 1003.55 1001.94 1000.92 1001.39 1001.83 1001.61 1000.57 999.69 999.94 999.51 999.94 1000.71 1000.72 999.85 1001.03 1001.32 1001.55 1002.04 1002.86 1003.76 1004.75 1005.86 1006.89 1008.38 1009.28 1009.32 1009.89 1011.10 1011.77 1012.15 1012.19 1012.70 1013.45 1014.11 1014.95 1015.75 1016.60 1017.30 1017.77 1018.13
1006.42 1006.17 1005.54 1004.65 1003.95 1002.64 1002.44 1002.64 1002.74 1002.30 1002.31 1001.60 1001.03 1000.46 1000.41 1000.96 1001.32 1001.93 1001.89 1001.91 1001.90 1002.26 1002.99 1003.92 1004.88 1005.34 1005.98 1006.76 1007.42 1007.74 1008.61 1009.39 1010.49 1011.26 1012.15 1013.04 1013.98 1014.69 1015.15 1015.94 1016.68 1017.47 1018.04 1018.36
1006.57 1006.27 1005.72 1005.33 1004.36 1003.33 1003.16 1003.30 1003.48 1003.48 1002.96 1002.65 1002.09 1002.00 1001.80 1001.89 1002.34 1002.68 1002.69 1002.92 1002.98 1003.01 1003.52 1004.13 1004.86 1005.21 1006.05 1006.81 1007.03 1007.21 1007.74 1009.72 1010.48 1011.29 1012.34 1013.34 1014.13 1014.46 1015.21 1015.93 1016.88 1017.78 1018.49 1018.71
1007.40 1006.65 1006.14 1005.71 1003.97 1003.88 1004.12 1004.13 1003.86 1003.83 1003.46 1003.04 1002.83 1002.63 1002.68 1002.87 1003.24 1003.74 1003.94 1004.02 1004.10 1004.12 1004.49 1004.96 1005.01 1005.38 1006.33 1007.02 1007.08 1007.70 1008.58 1009.87 1010.73 1011.70 1012.45 1013.31 1014.15 1014.95 1015.74 1016.48 1017.26 1017.81 1018.32 1018.20
1007.28 1007.25 1006.54 1005.96 1004.17 1004.09 1004.08 1004.07 1004.15 1004.08 1003.68 1003.14 1002.87 1002.76 1002.71 1002.98 1003.21 1004.16 1004.71 1004.72 1004.97 1005.57 1006.00 1005.89 1006.00 1006.49 1006.73 1007.15 1007.53 1008.38 1009.26 1010.02 1010.78 1011.87 1012.84 1013.82 1014.44 1015.21 1015.85 1016.57 1017.19 1017.36 1017.82 1018.05
1007.48 1007.18 1006.16 1005.49 1004.46 1004.24 1004.20 1004.30 1004.38 1003.98 1003.69 1003.26 1003.03 1002.79 1002.83 1002.70 1003.08 1003.80 1004.93 1005.65 1006.06 1006.16 1006.76 1006.73 1006.71 1006.92 1006.69 1007.15 1008.03 1009.02 1009.63 1010.37 1011.30 1012.40 1013.36 1014.30 1015.05 1015.33 1015.94 1016.59 1016.85 1017.21 1017.72 1017.68
1006.85 1005.90 1005.25 1004.41 1004.48 1004.53 1004.15 1004.29 1004.47 1004.12 1003.97 1003.85 1003.56 1003.13 1003.06 1002.87 1003.43 1004.44 1005.21 1005.93 1006.48 1006.48 1006.87 1007.66 1007.70 1007.79 1007.05 1007.91 1008.54 1009.57 1010.13 1010.72 1011.65 1012.57 1013.40 1013.88 1014.57 1015.27 1016.00 1016.69 1017.39 1017.68 1017.83 1017.94
Thickness
5809 5808 5802 5813 5815 5811 5804 5799 5796 5814 5828 5821 5824 5830 5832 5827 5825 5823 5821 5813 5812 5813 5816 5814 5808 5805 5798 5794 5789 5785 5780 5778 5775 5772 5770 5767 5766 5766 5765 5764 5764 5762 5761 5759
5797 5795 5809 5812 5811 5807 5803 5799 5802 5811 5824 5820 5821 5828 5835 5832 5829 5829 5826 5822 5819 5819 5817 5817 5814 5811 5807 5803 5797 5790 5786 5781 5777 5777 5773 5772 5771 5771 5770 5769 5766 5765 5762 5760
5785 5796 5803 5803 5799 5798 5800 5801 5801 5796 5811 5826 5819 5824 5826 5831 5831 5832 5831 5833 5829 5825 5824 5823 5820 5818 5816 5809 5804 5799 5794 5789 5783 5781 5777 5773 5772 5770 5769 5769 5767 5765 5763 5760
5784 5796 5796 5794 5793 5802 5794 5806 5804 5801 5797 5786 5814 5794 5828 5824 5826 5826 5833 5835 5835 5830 5832 5830 5827 5822 5820 5818 5811 5805 5800 5794 5789 5785 5782 5778 5775 5770 5773 5771 5769 5764 5761 5759
5782 5784 5786 5787 5794 5802 5799 5807 5803 5801 5798 5795 5798 5795 5825 5825 5838 5844 5837 5842 5841 5839 5838 5833 5833 5830 5825 5820 5814 5808 5804 5797 5792 5789 5785 5779 5773 5773 5773 5770 5765 5761 5758 5758
5783 5794 5794 5799 5801 5804 5807 5798 5794 5792 5793 5778 5794 5791 5815 5826 5838 5850 5848 5848 5847 5842 5841 5842 5840 5834 5824 5820 5814 5809 5803 5798 5792 5790 5785 5778 5773 5771 5768 5766 5763 5760 5757 5754
5770 5781 5794 5799 5789 5795 5795 5791 5769 5764 5769 5773 5786 5785 5818 5843 5851 5848 5852 5852 5850 5849 5846 5842 5835 5830 5825 5820 5815 5809 5802 5796 5791 5787 5783 5780 5775 5770 5766 5762 5759 5757 5754 5752
5758 5755 5779 5795 5790 5787 5786 5791 5773 5745 5757 5778 5778 5781 5815 5848 5853 5854 5854 5856 5854 5849 5850 5846 5840 5834 5827 5822 5818 5810 5801 5794 5790 5788 5783 5777 5773 5768 5764 5761 5758 5756 5753 5749
5752 5756 5785 5790 5798 5798 5777 5773 5796 5775 5759 5764 5787 5802 5830 5845 5849 5851 5855 5853 5852 5854 5851 5845 5843 5837 5832 5826 5818 5813 5805 5797 5789 5787 5782 5776 5771 5766 5760 5757 5753 5753 5748 5744
5769 5752 5777 5787 5793 5789 5791 5796 5774 5773 5748 5746 5773 5781 5805 5829 5844 5854 5852 5853 5856 5855 5847 5844 5841 5835 5831 5823 5821 5815 5807 5800 5793 5785 5781 5776 5773 5767 5763 5758 5754 5751 5748 5743
5772 5767 5767 5778 5779 5782 5777 5779 5776 5784 5777 5768 5763 5784 5832 5834 5851 5846 5853 5853 5853 5851 5845 5839 5837 5832 5827 5823 5820 5815 5807 5799 5794 5783 5778 5772 5770 5766 5761 5755 5751 5747 5745 5742
5774 5770 5756 5771 5783 5784 5787 5792 5793 5777 5766 5769 5775 5788 5838 5839 5849 5844 5849 5855 5855 5851 5847 5841 5838 5832 5825 5820 5814 5806 5798 5790 5785 5782 5776 5770 5767 5762 5756 5752 5748 5744 5741 5738
5773 5764 5750 5762 5772 5776 5778 5787 5793 5789 5786 5769 5771 5788 5834 5837 5848 5844 5842 5851 5850 5847 5844 5840 5837 5829 5818 5809 5804 5800 5794 5782 5772 5759 5758 5760 5760 5757 5752 5747 5745 5742 5735 5729
5779 5766 5765 5758 5772 5784 5775 5782 5784 5791 5779 5781 5783 5802 5822 5834 5839 5851 5848 5847 5848 5846 5843 5839 5829 5821 5816 5808 5796 5790 5782 5773 5768 5763 5751 5740 5745 5749 5747 5744 5741 5736 5729 5721
5779 5765 5759 5769 5770 5774 5782 5784 5779 5780 5793 5782 5799 5790 5820 5835 5838 5852 5857 5849 5844 5840 5837 5830 5822 5815 5810 5796 5786 5776 5767 5764 5759 5756 5733 5731 5728 5733 5737 5732 5732 5729 5722 5717
5764 5759 5757 5764 5769 5771 5773 5784 5787 5785 5787 5787 5793 5798 5836 5838 5839 5840 5844 5845 5843 5837 5829 5823 5816 5809 5799 5788 5774 5767 5767 5763 5763 5747 5733 5728 5727 5728 5729 5721 5721 5720 5717 5710
5755 5759 5755 5753 5758 5764 5761 5788 5790 5791 5796 5801 5787 5816 5831 5832 5835 5838 5837 5839 5838 5832 5826 5818 5811 5805 5793 5781 5777 5780 5781 5791 5774 5745 5735 5726 5734 5724 5719 5716 5713 5712 5706 5699
5744 5743 5743 5750 5749 5729 5787 5793 5794 5789 5797 5805 5808 5815 5824 5829 5834 5839 5839 5839 5836 5832 5826 5820 5814 5806 5788 5784 5778 5768 5764 5776 5767 5753 5739 5739 5734 5724 5721 5714 5711 5704 5699 5693
5735 5732 5733 5732 5740 5753 5778 5783 5784 5780 5789 5805 5803 5816 5821 5822 5824 5836 5838 5838 5837 5834 5826 5820 5816 5803 5790 5779 5773 5766 5765 5745 5741 5741 5739 5742 5735 5723 5719 5713 5702 5696 5692 5687
5723 5723 5725 5715 5722 5725 5776 5780 5780 5781 5767 5809 5804 5811 5811 5809 5802 5835 5828 5832 5834 5831 5826 5818 5812 5802 5790 5780 5775 5769 5760 5742 5742 5739 5737 5735 5730 5725 5716 5707 5698 5690 5684 5679
5713 5712 5714 5721 5716 5740 5758 5762 5767 5752 5766 5780 5792 5800 5802 5798 5808 5810 5817 5822 5828 5826 5822 5815 5805 5800 5798 5795 5787 5777 5768 5763 5755 5747 5736 5728 5718 5712 5707 5699 5691 5682 5675 5671
5707 5706 5708 5704 5704 5712 5755 5752 5741 5753 5766 5772 5778 5780 5785 5793 5796 5798 5806 5807 5812 5813 5813 5809 5801 5798 5793 5789 5785 5783 5776 5760 5750 5738 5728 5718 5711 5706 5699 5692 5681 5670 5660 5657
5694 5708 5709 5712 5729 5738 5740 5740 5750 5754 5757 5764 5768 5774 5778 5781 5785 5785 5785 5791 5795 5800 5798 5795 5796 5792 5783 5777 5779 5772 5763 5750 5740 5728 5721 5712 5703 5695 5686 5676 5666 5660 5655 5655
5696 5697 5702 5705 5731 5732 5737 5742 5743 5747 5753 5765 5771 5774 5778 5776 5781 5777 5777 5779 5779 5776 5775 5779 5779 5772 5769 5768 5765 5760 5751 5743 5734 5722 5712 5702 5696 5687 5679 5670 5662 5659 5652 5647
5695 5693 5700 5705 5723 5728 5731 5733 5734 5742 5751 5759 5767 5770 5772 5777 5778 5777 5768 5763 5762 5765 5762 5765 5765 5761 5764 5759 5753 5746 5740 5733 5721 5711 5701 5692 5682 5678 5670 5662 5659 5654 5646 5643
5691 5700 5704 5709 5720 5719 5727 5730 5732 5734 5738 5746 5753 5761 5767 5774 5771 5767 5758 5755 5754 5758 5757 5751 5749 5747 5755 5745 5740 5733 5727 5720 5710 5701 5692 5687 5681 5673 5664 5655 5645 5638 5634 5630